Regional Weather Roundup
Issued by NWS

Home | Current Version | Previous Version | Graphics & Text | Print | Product List | Glossary Off
Versions: 1 2 3 4 5 6 7 8 9 10 11 12 13 14 15 16 17 18 19 20 21 22 23 24 25 26 27 28 29 30 31 32 33 34 35 36 37 38 39 40 41 42 43 44 45 46 47 48 49 50

000
ASUS43 KDMX 232206
RWRIA

WEATHER ROUNDUP FOR IOWA
NATIONAL WEATHER SERVICE DES MOINES IA
400 PM CST THU NOV 23 2017

NOTE: "FAIR" INDICATES FEW OR NO CLOUDS BELOW 12,000 FEET WITH NO
SIGNIFICANT WEATHER AND/OR OBSTRUCTIONS TO VISIBILITY.

* - THESE STATIONS ARE NOT NWS STATIONS...THUS NOT UNDER NWS
QUALITY CONTROL.  THEY ALSO DO NOT REPORT WEATHER SUCH
AS PRECIPITATION OR FOG.

IAZ001>003-012>014-020>022-031>034-043>046-232300-
   NORTHWEST IOWA

CITY           SKY/WX    TMP DP  RH WIND       PRES   REMARKS
CARROLL *      CLOUDY    59  34  38 SW8       29.86F
CHEROKEE *     PTCLDY    57  34  41 S12       29.83F
DENISON *      CLOUDY    61  36  39 S9        29.87F
LE MARS *      CLEAR     57  37  47 S12       29.81F
ORANGE CITY *  CLEAR     57  39  51 S13       29.81F
SHELDON *      CLOUDY    55  34  44 S8G14     29.79F
SIOUX CITY     CLEAR     62  39  42 S9        29.82F
SPENCER        CLOUDY    54  32  43 S9        29.81F
STORM LAKE *   CLOUDY    55  34  44 S12       29.83F
$$

IAZ055>058-069>071-079>083-090>094-232300-
   SOUTHWEST IOWA

CITY           SKY/WX    TMP DP  RH WIND       PRES   REMARKS
ATLANTIC *     CLOUDY    59  36  41 S8        29.89S
AUDUBON *      CLOUDY    57  36  44 S5        29.89F
CLARINDA *     CLEAR     61  37  41 SW6         N/A
COUNCIL BLFS * CLOUDY    59  39  47 S6        29.88F
CRESTON *      CLEAR     57  36  44 SW5       29.92S
HARLAN  *      CLEAR     59  36  41 S8        29.91F
LAMONI         CLEAR     58  36  43 SW5       29.92S
RED OAK *      CLOUDY    59  37  44 S7        29.90F
SHENANDOAH *   CLOUDY    61  37  41 S6        29.90F
$$

IAZ047>049-059>061-072>074-084-232300-
   CENTRAL IOWA

CITY           SKY/WX    TMP DP  RH WIND       PRES   REMARKS
AMES           CLEAR     52  34  50 SW6       29.89F
ANKENY *       CLEAR     52  32  46 S5        29.92S
BOONE *        CLEAR     52  32  46 SW5       29.88S
CHARITON *     CLEAR     55  32  41 S3        29.91S
DES MOINES     PTCLDY    53  32  44 SW5       29.91S
GRINNELL*      CLOUDY    50  31  49 CALM      29.92S
KNOXVILLE *    CLEAR     54  30  40 SW3       29.90S
MARSHALLTOWN   CLOUDY    50  31  48 SW3       29.88F
NEWTON *       CLEAR     52  30  43 SW5       29.91S
PELLA *        CLEAR     54  30  39 CALM      29.92F
PERRY *          N/A     55  29  37 S5        29.89F
$$

IAZ004>006-015-016-023>025-035-036-232300-
   NORTH CENTRAL IOWA

CITY           SKY/WX    TMP DP  RH WIND       PRES   REMARKS
ALGONA *       CLEAR     50  32  50 S8        29.84F
CLARION *      CLEAR     48  32  53 S9        29.87F
ESTHERVILLE    CLEAR     48  32  53 S8        29.81F
FORT DODGE *   CLEAR     53  33  46 S7        29.86F
MASON CITY     CLEAR     48  29  47 S6        29.87F
FOREST CITY *    N/A     48  32  53 SW7       29.86S
WEBSTER CITY * CLEAR     52  32  46 S9        29.86S
IOWA FALLS *     N/A     50  32  50 S5        29.89F
$$

IAZ007>011-017>019-026>030-037>042-050>054-066-232300-
   NORTHEAST IOWA

CITY           SKY/WX    TMP DP  RH WIND       PRES   REMARKS
CEDAR RAPIDS   CLEAR     46  29  51 NW7       29.90S
CHARLES CITY * CLEAR     46  25  42 S6        29.88S
CLINTON *      CLEAR     46  28  49 W7        29.92S
DECORAH *      CLEAR     45  25  45 S5        29.85F
DUBUQUE        CLEAR     45  27  49 W6        29.91R
MONTICELLO *   CLEAR     48  28  46 CALM      29.91R
OELWEIN *      CLEAR     45  27  49 CALM      29.89F
WATERLOO       CLEAR     46  27  47 S5        29.89F
$$

IAZ064-065-067-068-078-232300-
   EAST CENTRAL IOWA

CITY           SKY/WX    TMP DP  RH WIND       PRES   REMARKS
DAVENPORT      CLEAR     47  27  45 W8        29.94R
IOWA CITY      CLEAR     50  29  44 W7        29.93S
MT. PLEASANT * CLEAR     50  29  44 W5        29.94R
MUSCATINE *    CLEAR     50  28  43 W7        29.94R
QUAD CITIES    CLEAR     48  26  42 W6        29.92R
$$

IAZ062-063-075>077-085>089-095>099-232300-
   SOUTHEAST IOWA

CITY           SKY/WX    TMP DP  RH WIND       PRES   REMARKS
BURLINGTON     CLEAR     50  30  46 W5        29.93R
FAIRFIELD *    CLEAR     50  28  43 NW5       29.92F
FORT MADISON * CLEAR     52  30  43 W3        29.95R
KEOKUK *       CLEAR     52  32  46 W3        29.93S
OSKALOOSA *      N/A     51  30  45 CALM      29.92F
OTTUMWA        CLEAR     53  32  44 CALM      29.92F
WASHINGTON *   CLEAR     48  30  49 W5        29.94S
$$

ABBREVIATIONS USED IN REMARKS
   TC - TEMPERATURES IN CELSIUS
  WCI - WIND CHILL INDEX
   HX - HEAT INDEX
  VSB - VISIBILITY
$$





USA.gov is the U.S. government's official web portal to all federal, state and local government web resources and services.